Wind_Speed
5 5 6 6 5 4 5 6 6 7 7 8 8 8 8 8 9 10 11 12 12 12 13 13 13 14 14 14 13 13 12 11 11 10 10 10 10 10 11 11 12 12 13 13 14 14 14 14 14
4 5 5 4 5 6 6 6 6 8 9 9 10 10 10 10 11 12 12 14 14 14 14 14 15 16 16 16 17 16 15 14 13 13 12 12 11 11 11 11 12 12 12 12 13 13 13 13 13
4 5 5 5 6 6 7 8 9 10 11 11 11 12 12 12 14 14 15 16 16 16 17 17 16 16 17 18 19 19 19 18 17 16 15 15 14 13 12 12 12 12 12 12 12 12 12 11 12
4 6 5 6 6 8 9 10 10 12 13 13 13 14 14 15 16 17 18 18 19 19 20 19 19 18 18 19 20 21 22 23 22 20 19 18 17 16 15 14 13 12 12 11 11 11 11 10 10
5 5 6 7 8 9 11 12 13 15 16 16 16 17 17 18 20 21 21 22 23 23 22 22 22 21 21 22 22 22 24 25 25 25 24 22 20 19 18 16 15 14 13 12 12 11 10 10 10
7 7 8 9 12 12 12 14 16 17 18 19 20 20 21 22 23 24 25 26 27 27 27 26 25 25 25 24 24 24 25 26 27 27 27 25 24 23 21 19 18 16 15 14 13 11 11 10 9
9 9 11 13 15 14 15 16 18 20 21 22 23 23 24 24 26 27 28 29 30 30 30 30 29 28 28 28 27 27 26 27 27 29 28 28 27 27 25 23 21 20 18 16 15 13 11 10 9
11 10 11 14 17 17 17 19 20 22 23 24 25 26 26 27 28 29 29 30 31 31 32 32 32 32 32 32 31 30 30 29 29 29 30 30 29 29 29 27 25 23 21 20 18 15 13 11 10
12 10 11 14 18 20 20 21 22 24 25 25 26 27 28 28 29 29 30 30 30 31 32 33 33 33 33 34 34 34 34 32 31 30 30 31 30 29 29 30 28 27 25 23 21 19 16 14 12
14 13 15 16 20 22 22 23 25 26 26 26 26 27 27 28 29 30 30 30 30 31 32 32 33 33 33 33 34 34 35 35 35 34 33 31 29 29 28 28 30 31 29 26 24 22 20 17 15
15 16 18 18 21 22 23 24 25 27 27 27 27 27 27 28 29 30 30 30 30 30 31 31 32 32 32 32 32 32 33 34 36 36 36 35 32 31 31 30 28 29 30 28 26 24 23 21 18
17 18 20 21 21 22 24 24 25 26 27 27 26 27 28 28 28 28 28 28 28 28 29 29 29 29 30 30 30 30 31 32 33 34 36 36 35 33 32 32 32 30 29 30 30 28 25 24 22
18 19 19 21 21 23 24 25 26 26 25 25 26 26 27 27 26 25 25 25 25 25 24 25 25 26 26 27 26 27 28 29 29 30 33 35 35 35 34 34 33 33 31 30 29 29 28 27 25
16 17 19 21 22 23 24 25 25 23 24 24 25 25 24 23 23 23 23 23 23 22 22 23 23 23 23 23 23 24 24 25 27 27 29 30 31 32 33 34 34 33 33 32 31 30 29 29 29
19 20 21 20 22 21 23 25 23 22 23 23 23 22 21 21 22 22 21 21 22 22 22 22 22 22 22 21 21 21 21 22 23 25 26 27 29 29 30 31 33 33 33 34 32 31 31 29 28
19 19 18 19 20 21 22 24 23 22 22 21 21 20 19 20 20 20 21 21 21 22 22 22 22 22 21 20 19 19 18 19 20 21 22 24 26 27 29 29 30 31 32 33 34 33 31 31 29
17 14 14 19 20 21 21 22 21 19 19 19 18 18 19 19 19 19 20 21 21 22 22 22 22 21 20 20 18 17 16 16 16 17 19 21 23 24 26 28 29 30 31 33 34 33 33 33 31
15 15 13 18 23 21 20 20 20 16 16 16 16 17 17 18 18 19 20 21 21 21 21 21 21 21 20 18 17 15 14 13 13 14 15 16 18 21 23 25 26 28 30 31 34 35 34 33 32
14 15 15 20 22 20 19 18 18 14 13 13 14 15 16 17 18 19 20 21 21 21 21 21 21 20 19 18 16 15 14 13 12 12 13 14 15 17 20 22 24 26 28 30 32 34 35 35 34
16 14 15 19 19 16 15 14 13 12 12 12 13 14 15 17 18 19 20 21 21 21 21 21 20 20 19 18 16 15 14 13 12 12 12 12 13 14 17 19 21 23 26 28 30 32 33 34 35
16 16 16 17 16 13 11 10 8 8 10 11 12 13 14 16 17 19 20 21 21 21 21 21 21 20 19 19 17 16 14 13 12 11 12 12 12 13 15 17 19 21 23 25 28 30 32 33 35
16 16 14 14 12 10 9 8 6 7 8 10 11 12 13 15 16 18 19 20 20 21 21 21 21 21 20 20 19 17 15 14 12 11 11 11 11 12 14 15 17 19 21 23 25 28 30 32 34
16 13 12 10 9 7 6 6 7 6 8 9 11 12 13 14 16 17 18 19 20 21 21 22 22 22 21 21 21 19 17 16 15 13 12 11 11 12 13 13 15 17 18 21 23 26 29 31 33
13 11 9 7 5 4 4 5 7 6 7 9 10 11 12 14 15 16 17 18 19 21 21 22 22 22 22 22 22 21 20 19 18 16 14 13 12 12 12 12 14 15 16 18 20 23 26 29 31
11 9 7 2 4 5 4 5 6 5 6 8 9 10 11 13 14 15 16 18 19 20 21 22 22 22 22 22 22 22 22 21 20 19 17 16 14 13 13 12 13 13 14 16 18 20 23 26 29
10 10 10 8 3 8 8 7 4 4 5 7 8 9 10 11 13 14 15 17 18 19 20 21 22 22 22 22 22 23 23 23 22 21 20 19 17 16 15 13 13 13 13 15 16 19 21 24 27
11 11 11 10 11 7 7 5 2 4 5 6 7 8 9 10 12 13 14 15 17 18 19 20 21 22 22 22 22 22 22 23 23 23 22 21 20 18 17 15 14 14 15 16 18 19 20 23 25
10 10 9 11 11 8 6 8 3 2 4 5 6 7 8 9 10 12 13 14 16 17 18 19 20 21 22 22 23 23 23 23 23 23 23 22 22 20 19 17 16 16 15 16 17 19 21 22 24
11 11 10 10 9 10 8 7 3 3 4 5 6 6 7 8 9 11 12 13 15 16 18 19 20 21 21 22 22 23 23 23 23 24 24 23 23 22 21 19 18 18 17 17 17 19 20 22 24
10 10 11 11 10 9 7 4 3 2 3 4 5 6 7 8 9 11 12 13 15 16 17 18 19 20 21 21 22 22 23 23 23 23 24 24 24 24 23 21 20 19 19 19 19 20 21 22 23
Wind_Direction
30 32 42 38 23 24 19 17 11 360 352 343 339 338 337 332 325 317 316 313 311 307 303 297 287 280 274 273 271 269 265 263 260 258 255 251 247 243 239 236 235 235 236 237 238 240 243 243 245
6 20 32 18 357 355 358 358 358 348 338 332 329 326 324 321 318 316 311 310 309 306 301 298 293 283 273 268 266 263 261 258 256 255 255 254 251 247 244 241 239 239 239 240 241 242 243 243 245
348 350 6 346 327 337 341 339 335 331 322 317 318 317 315 313 311 308 305 305 306 303 298 296 294 289 278 269 267 261 257 255 254 252 250 251 250 247 246 244 243 241 241 241 240 241 243 243 243
320 328 337 318 321 322 321 319 318 319 316 310 310 311 309 308 307 304 302 298 297 297 295 293 289 286 281 275 271 267 259 254 251 249 247 247 247 245 244 244 243 241 240 240 240 240 241 242 242
300 313 313 308 305 305 309 311 313 314 314 310 308 307 306 304 302 301 299 297 295 292 291 289 286 283 282 279 274 269 265 259 252 247 245 244 245 246 245 243 241 239 238 238 239 239 240 241 241
284 289 285 292 289 298 303 308 308 311 311 309 307 307 305 303 301 300 298 296 294 292 289 287 284 281 278 277 274 273 268 263 256 250 246 244 242 242 243 242 241 238 237 236 236 237 239 239 240
275 283 289 292 293 298 302 304 307 308 309 308 307 306 305 302 300 299 298 296 294 292 290 287 284 282 279 277 275 272 270 267 260 253 250 247 243 240 238 240 240 238 237 236 235 235 235 237 237
279 287 294 290 293 298 302 304 307 307 308 307 307 307 306 304 303 301 299 296 294 292 290 288 285 282 278 275 273 271 270 268 262 257 253 249 248 245 239 236 237 237 237 236 235 233 231 232 233
278 283 278 277 293 300 304 306 307 307 308 309 309 309 308 308 306 304 302 299 297 294 292 290 287 284 281 278 273 269 267 266 263 259 255 252 250 248 246 238 234 234 234 234 234 234 230 229 230
275 275 277 284 296 300 305 308 311 311 312 313 312 312 311 311 309 307 304 302 300 298 295 293 291 288 285 281 277 273 268 264 262 262 261 258 254 251 249 244 239 235 233 233 233 234 232 230 229
274 277 281 289 297 302 306 310 313 313 315 316 316 316 315 313 310 308 307 306 304 302 299 297 295 292 289 286 281 276 271 267 264 263 264 263 260 256 254 249 247 243 236 232 233 233 232 231 230
273 277 283 292 299 304 308 311 314 315 316 318 319 318 317 315 314 313 312 311 310 309 306 303 300 297 294 290 285 279 274 270 266 264 262 262 262 260 257 255 252 249 242 237 235 235 233 232 230
276 280 286 295 302 307 310 313 315 317 317 319 319 318 318 319 319 318 318 318 318 318 315 311 308 305 301 296 290 283 277 272 269 266 263 261 262 261 260 258 256 251 246 243 240 236 235 232 231
271 282 293 300 305 308 311 313 315 318 318 319 320 321 322 324 325 325 325 325 326 325 324 321 317 314 308 301 294 288 281 275 270 266 264 261 259 258 259 258 258 256 251 249 246 241 239 235 232
282 290 296 302 307 309 314 315 317 321 320 321 322 325 327 328 328 329 329 330 330 331 331 329 326 323 318 312 303 294 285 279 273 268 264 260 258 256 257 257 257 256 254 251 249 247 242 237 233
284 293 300 302 303 310 318 316 319 322 322 324 326 329 331 332 332 334 334 334 335 335 334 333 332 330 327 322 314 304 294 284 277 272 268 263 260 257 256 256 255 255 254 252 249 249 245 240 238
286 291 300 302 305 315 316 314 318 323 324 327 330 334 338 338 339 341 341 342 341 339 339 338 337 335 332 329 325 316 306 295 286 278 272 267 262 259 257 257 256 253 252 251 249 249 246 244 243
275 288 297 302 305 314 315 315 317 327 327 330 334 339 343 346 347 348 347 346 344 344 343 342 342 341 338 335 331 325 317 307 297 288 280 275 268 262 260 257 256 256 253 250 248 248 247 246 244
263 278 296 293 300 306 309 311 315 328 331 334 339 344 348 349 351 352 352 351 351 350 350 348 347 348 346 344 341 336 327 319 310 298 290 283 275 268 264 260 258 258 256 252 250 248 248 247 245
265 275 279 282 295 301 303 309 316 329 337 339 343 347 349 352 354 357 357 358 358 358 357 356 355 355 355 353 349 345 338 328 318 307 298 289 282 275 269 265 263 260 258 255 251 249 247 246 247
269 273 274 281 294 297 299 304 316 332 341 343 345 349 353 356 358 360 2 4 5 6 6 5 5 4 2 2 360 355 350 344 334 322 311 301 292 285 278 273 268 264 260 257 253 250 247 245 246
264 270 277 281 285 294 308 318 327 343 348 348 352 356 359 1 3 4 7 10 11 12 12 12 12 12 12 11 9 7 4 358 350 339 328 315 305 296 287 280 274 269 264 259 256 252 249 246 245
262 274 276 277 280 285 300 317 318 349 351 357 1 4 5 7 8 10 13 15 17 17 18 19 19 19 18 18 18 17 15 11 6 358 348 335 322 311 299 291 283 276 269 262 258 254 251 248 246
260 264 263 266 277 282 285 303 307 346 355 359 4 6 9 12 14 17 18 20 21 22 23 24 23 22 21 21 21 21 20 17 14 10 2 353 341 328 314 303 294 285 276 268 262 257 252 249 247
250 248 234 266 339 316 289 287 297 341 349 355 0 6 11 15 18 20 22 23 24 25 25 25 24 24 23 23 23 23 22 20 18 14 10 4 356 346 332 319 308 296 286 277 269 263 258 253 250
241 234 216 178 195 275 279 278 306 331 343 352 359 6 12 16 20 22 24 25 25 25 25 25 24 23 23 22 21 21 22 21 19 16 12 8 2 355 347 335 322 310 297 287 278 270 264 259 255
236 228 225 207 191 210 275 277 296 320 340 349 358 5 11 16 19 21 22 23 24 24 23 23 22 22 21 21 20 19 18 18 17 16 14 10 6 1 354 345 334 321 307 296 288 280 272 266 261
231 225 211 199 186 178 252 279 294 326 339 349 358 5 10 13 16 17 18 19 20 20 20 20 20 20 19 19 18 16 16 15 15 14 12 10 7 2 357 350 341 331 318 305 295 286 280 272 266
221 212 207 204 197 184 199 249 284 325 337 348 359 4 8 11 13 13 13 14 14 14 14 14 15 15 14 14 14 14 13 12 11 10 9 7 5 2 358 353 346 338 328 315 303 293 285 278 271
221 212 206 203 198 203 216 225 255 304 327 342 354 1 7 9 10 9 7 7 7 7 7 7 8 8 9 9 9 9 8 8 7 7 7 6 5 3 360 355 349 343 334 325 314 302 292 284 277
Height
5910 5910 5909 5909 5908 5907 5906 5906 5905 5905 5904 5903 5902 5902 5901 5901 5901 5902 5898 5896 5895 5895 5893 5893 5892 5891 5891 5890 5890 5889 5889 5888 5888 5887 5887 5886 5886 5886 5886 5886 5886 5887 5887 5887 5888 5888 5889 5889 5890
5910 5910 5910 5910 5908 5906 5906 5905 5905 5905 5904 5903 5902 5902 5901 5900 5900 5898 5897 5895 5894 5894 5892 5891 5890 5889 5889 5888 5888 5887 5887 5887 5886 5886 5885 5885 5885 5885 5885 5885 5885 5885 5886 5886 5886 5887 5887 5887 5888
5911 5910 5911 5910 5908 5907 5907 5906 5905 5904 5903 5902 5902 5901 5900 5899 5898 5897 5895 5894 5893 5892 5890 5889 5888 5887 5886 5885 5885 5884 5884 5884 5884 5884 5883 5883 5883 5883 5884 5884 5884 5884 5884 5885 5885 5885 5885 5886 5886
5912 5912 5911 5910 5907 5907 5906 5905 5904 5903 5902 5901 5901 5900 5898 5898 5896 5895 5893 5892 5890 5889 5887 5886 5885 5884 5883 5882 5882 5881 5881 5881 5881 5881 5881 5881 5881 5881 5881 5882 5882 5882 5883 5883 5883 5884 5884 5884 5885
5912 5912 5910 5907 5906 5905 5905 5903 5903 5902 5901 5899 5899 5898 5897 5895 5894 5892 5890 5888 5887 5885 5884 5882 5881 5880 5880 5879 5878 5877 5877 5877 5877 5877 5877 5878 5878 5879 5879 5879 5880 5880 5881 5881 5882 5882 5882 5883 5883
5912 5911 5909 5906 5905 5904 5904 5902 5901 5900 5899 5897 5896 5896 5894 5892 5890 5888 5886 5884 5882 5881 5879 5878 5876 5875 5875 5874 5873 5873 5872 5872 5872 5873 5873 5874 5874 5875 5876 5877 5877 5878 5879 5879 5880 5880 5881 5881 5882
5911 5910 5907 5905 5904 5903 5903 5901 5900 5898 5897 5895 5894 5892 5890 5888 5886 5884 5881 5879 5877 5875 5873 5871 5870 5869 5868 5868 5867 5867 5867 5867 5867 5867 5868 5869 5870 5870 5872 5873 5874 5875 5876 5877 5877 5878 5879 5879 5880
5908 5909 5906 5904 5902 5902 5901 5899 5898 5896 5894 5893 5891 5889 5886 5884 5882 5879 5876 5874 5871 5869 5866 5864 5863 5862 5861 5861 5861 5860 5860 5860 5861 5861 5862 5863 5864 5865 5866 5868 5869 5871 5872 5873 5875 5875 5876 5877 5878
5906 5907 5904 5901 5900 5900 5898 5897 5895 5893 5891 5889 5887 5885 5882 5879 5876 5873 5871 5868 5865 5862 5860 5858 5856 5854 5853 5852 5853 5853 5853 5853 5854 5855 5856 5857 5858 5859 5861 5862 5864 5866 5867 5869 5871 5872 5874 5875 5876
5904 5903 5901 5898 5898 5897 5896 5894 5892 5890 5888 5886 5883 5881 5877 5874 5871 5868 5865 5862 5859 5856 5854 5851 5849 5847 5846 5844 5844 5844 5845 5845 5846 5847 5849 5850 5851 5853 5855 5856 5858 5860 5862 5864 5866 5868 5870 5872 5873
5899 5900 5898 5896 5896 5895 5893 5891 5889 5886 5884 5882 5879 5876 5873 5870 5866 5863 5859 5856 5853 5850 5847 5844 5842 5840 5838 5837 5836 5836 5836 5837 5838 5839 5841 5842 5844 5846 5848 5850 5852 5854 5856 5859 5861 5864 5866 5868 5870
5897 5897 5895 5894 5894 5892 5890 5888 5886 5884 5881 5878 5875 5872 5869 5865 5861 5858 5854 5851 5848 5845 5842 5838 5836 5833 5831 5830 5829 5828 5828 5829 5830 5831 5833 5835 5837 5839 5841 5843 5846 5848 5850 5853 5856 5858 5861 5864 5866
5892 5893 5892 5891 5891 5889 5887 5885 5883 5881 5878 5875 5872 5868 5865 5861 5857 5854 5850 5847 5844 5840 5837 5834 5830 5827 5825 5823 5821 5821 5820 5821 5822 5823 5824 5827 5829 5831 5834 5836 5839 5841 5844 5847 5850 5853 5856 5859 5861
5888 5888 5888 5889 5888 5886 5884 5882 5881 5878 5875 5872 5869 5865 5862 5858 5855 5851 5848 5844 5840 5837 5833 5830 5826 5823 5820 5817 5815 5814 5813 5813 5814 5816 5817 5819 5821 5823 5826 5829 5832 5835 5838 5841 5844 5847 5850 5853 5856
5888 5888 5888 5886 5884 5883 5881 5879 5877 5875 5872 5869 5866 5862 5859 5856 5852 5849 5845 5842 5838 5834 5830 5826 5823 5819 5815 5812 5810 5808 5807 5807 5808 5809 5810 5812 5814 5816 5819 5821 5824 5827 5831 5834 5837 5841 5843 5846 5850
5886 5886 5885 5883 5881 5879 5880 5877 5874 5872 5869 5866 5863 5860 5857 5854 5850 5847 5843 5839 5836 5832 5828 5824 5820 5815 5812 5808 5805 5803 5802 5802 5802 5803 5804 5805 5807 5809 5811 5814 5817 5820 5823 5827 5830 5833 5837 5840 5844
5884 5882 5881 5879 5878 5877 5877 5875 5872 5870 5867 5864 5861 5858 5855 5852 5849 5845 5841 5838 5834 5830 5825 5821 5817 5813 5809 5806 5802 5800 5798 5797 5797 5797 5798 5799 5800 5802 5804 5807 5810 5812 5816 5819 5823 5827 5830 5834 5837
5882 5880 5879 5878 5875 5876 5874 5872 5869 5868 5865 5863 5860 5857 5854 5851 5848 5844 5840 5836 5832 5828 5824 5820 5815 5811 5807 5803 5800 5797 5796 5794 5794 5793 5794 5794 5795 5796 5798 5800 5802 5805 5808 5811 5815 5819 5823 5827 5830
5879 5880 5880 5878 5875 5875 5873 5871 5868 5866 5864 5862 5859 5857 5854 5850 5847 5843 5840 5835 5831 5827 5822 5818 5814 5810 5806 5802 5799 5796 5794 5792 5791 5790 5790 5790 5791 5791 5793 5794 5796 5798 5801 5804 5807 5811 5815 5819 5822
5876 5877 5878 5876 5873 5873 5871 5869 5867 5865 5863 5861 5859 5856 5853 5850 5847 5843 5839 5835 5830 5826 5822 5817 5813 5809 5805 5801 5798 5795 5792 5790 5789 5788 5788 5787 5787 5787 5788 5789 5790 5792 5794 5797 5800 5803 5807 5811 5815
5875 5874 5874 5873 5872 5871 5870 5868 5867 5865 5863 5861 5859 5856 5853 5850 5846 5843 5839 5835 5831 5826 5822 5817 5813 5809 5805 5801 5798 5794 5792 5789 5788 5786 5785 5785 5784 5784 5784 5785 5785 5786 5788 5790 5793 5796 5799 5803 5807
5871 5871 5872 5871 5870 5869 5868 5867 5865 5864 5863 5861 5858 5856 5853 5850 5847 5843 5839 5835 5831 5827 5822 5818 5814 5810 5806 5802 5798 5795 5792 5789 5787 5785 5784 5782 5781 5781 5780 5780 5781 5781 5782 5784 5786 5789 5792 5795 5799
5868 5869 5869 5868 5868 5867 5867 5866 5865 5863 5862 5860 5858 5855 5853 5850 5847 5844 5840 5836 5832 5828 5824 5819 5815 5811 5807 5803 5799 5796 5793 5790 5787 5785 5783 5781 5779 5778 5777 5777 5776 5776 5777 5778 5780 5782 5784 5788 5791
5866 5867 5867 5866 5866 5866 5866 5866 5865 5863 5861 5860 5858 5856 5853 5850 5847 5844 5841 5837 5833 5829 5825 5821 5817 5813 5809 5805 5801 5798 5794 5791 5788 5785 5782 5780 5778 5776 5774 5773 5773 5772 5772 5773 5774 5775 5777 5780 5783
5864 5865 5865 5865 5866 5866 5866 5865 5865 5863 5861 5860 5858 5856 5853 5851 5848 5845 5842 5838 5835 5831 5827 5823 5819 5815 5811 5807 5803 5800 5796 5792 5789 5785 5782 5779 5777 5774 5772 5771 5769 5768 5768 5768 5769 5769 5770 5772 5775
5861 5862 5864 5865 5868 5867 5865 5864 5864 5862 5861 5860 5858 5856 5854 5851 5849 5846 5843 5840 5836 5833 5829 5825 5821 5817 5813 5809 5805 5802 5798 5794 5790 5786 5783 5779 5776 5773 5771 5768 5767 5765 5764 5764 5763 5763 5764 5765 5767
5859 5860 5861 5862 5863 5864 5864 5863 5863 5861 5861 5859 5858 5856 5854 5852 5849 5847 5844 5841 5838 5834 5831 5827 5823 5819 5815 5811 5807 5803 5799 5795 5791 5787 5783 5780 5776 5773 5770 5767 5765 5763 5761 5759 5758 5758 5758 5758 5759
5858 5858 5859 5860 5861 5863 5865 5862 5862 5861 5860 5859 5857 5856 5854 5852 5850 5847 5845 5842 5839 5836 5832 5828 5825 5821 5817 5813 5809 5805 5801 5797 5793 5788 5784 5780 5776 5772 5769 5765 5762 5760 5757 5755 5754 5752 5751 5751 5751
5857 5857 5858 5859 5860 5861 5862 5863 5861 5860 5859 5858 5857 5855 5854 5852 5850 5848 5845 5843 5840 5837 5833 5830 5826 5822 5818 5814 5810 5806 5802 5798 5794 5789 5785 5781 5776 5772 5768 5764 5760 5757 5754 5751 5749 5747 5745 5744 5744
5855 5856 5857 5858 5859 5859 5860 5863 5860 5859 5858 5858 5856 5855 5854 5852 5850 5848 5846 5843 5840 5837 5834 5830 5827 5823 5819 5815 5811 5807 5803 5798 5794 5790 5785 5781 5776 5771 5767 5762 5758 5754 5751 5747 5744 5741 5739 5737 5736